Wind_Speed
20 20 21 22 22 22 22 22 22 22 22 22 22 21 21 20 19 18 17 17 16 15 14 13 12 11 11 10 10 9 9 9 9 9 9 9 10 10 10 10 10 11 11
22 21 22 23 24 24 24 24 24 25 25 24 24 24 23 22 22 20 19 19 18 17 16 15 14 14 13 12 12 11 10 10 10 10 10 11 11 11 11 11 11 12 12
23 23 24 24 25 25 26 26 27 27 27 27 27 26 26 25 24 23 22 21 20 20 19 17 17 16 15 14 13 12 12 11 11 12 12 12 12 12 12 12 12 12 13
26 26 26 26 27 27 28 28 28 29 29 29 29 28 28 27 26 25 24 23 23 22 21 19 19 18 17 16 15 14 13 13 13 13 13 13 13 13 13 13 13 13 13
29 29 28 28 29 29 30 30 30 30 31 31 31 30 30 29 29 28 27 26 25 24 23 22 21 20 19 18 17 16 15 15 14 15 15 14 14 14 14 14 14 15 15
32 32 32 31 31 31 32 32 32 32 32 33 33 33 32 32 31 31 30 28 28 27 25 24 23 22 21 20 18 17 17 16 16 16 15 15 15 15 15 15 16 16 16
35 35 35 35 34 34 34 34 34 34 34 35 35 35 35 34 33 33 32 31 30 29 27 26 25 23 22 21 20 19 19 18 17 17 17 17 16 16 16 17 17 17 17
39 38 38 38 37 37 37 37 37 36 36 36 37 37 37 36 36 35 34 33 32 31 29 28 27 26 24 23 22 21 20 20 19 18 18 18 18 18 18 18 18 18 19
43 42 42 41 41 40 40 40 40 39 39 39 39 39 39 38 37 37 36 34 33 32 31 30 29 28 26 25 23 22 22 21 20 20 20 19 19 19 19 19 19 19 20
47 46 46 45 45 44 43 43 43 42 42 41 41 41 41 40 39 39 38 36 35 34 33 32 31 30 28 27 25 24 24 23 22 21 21 21 20 20 20 20 20 20 21
50 49 49 49 48 47 47 46 46 45 45 44 44 43 43 42 42 41 40 39 37 36 34 33 32 31 30 29 27 26 25 24 24 23 22 22 22 22 22 22 21 21 22
54 53 52 52 52 51 50 50 49 49 48 47 46 46 45 45 44 43 42 40 39 38 36 35 34 33 31 30 29 27 26 26 25 24 24 23 23 23 23 23 23 23 23
57 57 55 55 55 54 53 53 52 52 51 50 49 48 48 47 46 45 44 42 41 40 38 36 35 34 33 31 30 29 28 27 26 25 25 24 24 24 24 24 24 24 24
59 60 59 59 58 58 57 56 55 55 54 53 53 51 50 49 48 47 46 44 42 41 40 38 37 36 34 33 32 31 29 28 27 26 26 25 25 25 25 25 25 25 25
61 61 61 62 61 61 60 59 58 58 57 56 56 55 54 52 51 49 48 46 44 43 41 40 39 37 36 35 33 32 31 29 28 27 27 26 26 26 25 25 26 26 27
60 61 62 63 61 62 62 61 61 61 60 59 58 57 56 55 54 52 51 49 48 45 43 41 40 39 38 36 35 33 32 31 30 28 27 27 27 27 26 26 26 27 28
57 60 62 62 61 62 63 63 62 63 62 61 60 59 58 57 56 55 53 51 50 47 45 44 42 41 39 38 36 34 32 31 30 29 28 28 28 27 27 27 27 28 29
54 57 60 62 62 62 63 63 64 64 64 63 61 60 60 59 58 57 55 52 51 49 47 45 43 42 41 39 37 35 34 32 31 30 29 29 29 29 29 28 29 29 30
53 55 57 60 61 61 62 61 64 65 65 64 62 61 60 60 59 58 56 54 52 51 49 47 44 42 41 40 39 37 35 33 32 31 30 30 30 29 29 29 30 30 31
51 52 54 56 59 59 60 60 61 63 64 65 63 61 61 61 61 60 58 56 53 52 50 48 46 44 42 41 40 38 37 35 34 32 31 31 30 30 30 30 31 31 32
47 49 51 52 56 58 58 58 59 60 63 64 63 62 61 61 61 60 59 58 55 53 51 49 47 45 43 41 41 39 37 36 35 33 32 31 31 31 31 31 32 33 33
43 45 48 50 53 55 56 57 57 59 61 63 63 62 61 61 61 59 59 58 57 54 52 51 49 47 44 42 41 40 38 37 36 34 33 32 32 32 32 33 33 33 33
40 42 44 48 49 51 54 57 57 58 60 62 63 62 61 61 62 61 59 59 58 55 52 51 49 47 45 44 43 41 39 37 36 35 34 33 33 33 33 33 33 34 34
37 39 41 43 46 47 51 54 56 57 58 60 62 61 61 61 62 62 60 60 59 57 53 52 50 48 48 46 45 42 39 37 37 36 35 34 34 34 34 34 34 34 34
34 36 38 39 43 45 48 51 55 56 56 58 61 62 59 59 61 60 59 59 59 57 54 52 50 48 47 45 44 43 41 39 37 36 35 35 35 35 35 34 34 34 34
31 32 35 38 40 43 45 48 51 54 55 56 59 60 58 58 59 60 59 58 58 57 56 52 49 47 47 45 44 43 41 40 38 37 36 35 35 35 35 35 34 34 34
Wind_Direction
250 247 244 244 245 244 243 243 243 243 243 243 243 243 243 245 246 247 248 248 251 254 255 255 259 263 269 273 276 283 287 290 294 299 303 305 307 308 310 313 316 320 323
251 250 248 246 246 246 245 244 245 245 244 244 244 245 245 245 246 247 248 247 249 253 255 256 258 261 265 269 273 277 282 285 290 294 297 300 303 303 305 308 312 317 319
254 252 250 248 247 247 247 246 245 246 246 245 245 245 246 246 246 247 247 248 249 251 254 256 257 260 263 266 270 274 278 281 286 290 292 295 298 299 301 304 308 312 315
254 253 252 251 249 248 248 247 246 246 246 246 246 246 247 247 247 247 247 248 249 251 253 255 257 259 261 264 267 271 274 278 282 286 289 292 294 296 297 300 304 306 310
256 254 252 251 251 249 248 248 248 247 246 246 247 247 247 248 248 248 248 248 248 249 251 253 255 257 259 262 265 269 272 277 280 284 288 289 290 292 294 296 299 301 305
258 256 253 251 250 250 249 248 248 247 247 247 247 247 248 248 248 249 249 250 249 249 250 252 254 255 258 260 263 267 271 275 278 283 286 287 287 289 292 293 295 298 301
259 257 255 253 250 249 249 249 248 247 247 247 247 247 247 248 248 249 249 250 250 250 249 250 252 254 257 259 261 264 268 272 275 280 283 284 285 287 289 292 294 296 298
259 257 256 254 252 250 249 248 248 248 247 247 247 247 247 248 248 249 249 249 250 250 250 250 251 254 256 258 260 262 266 269 272 276 280 282 283 285 288 291 294 295 296
258 257 255 253 252 250 249 248 248 248 247 247 247 247 247 247 247 248 248 248 249 249 250 250 251 252 254 257 259 261 263 266 269 274 277 279 281 284 287 290 292 294 296
258 256 255 253 251 249 249 248 247 247 246 246 246 246 246 246 246 246 246 247 248 248 249 250 251 251 253 256 257 259 261 263 267 271 275 277 279 282 285 288 290 293 295
258 256 255 254 252 250 248 247 246 246 246 245 245 245 245 245 245 245 245 246 247 247 247 249 250 251 252 255 256 258 260 262 265 269 273 275 278 280 283 286 288 291 294
258 256 254 254 253 250 247 246 245 245 245 245 245 245 245 245 244 244 243 244 245 246 246 247 248 249 252 254 256 257 258 261 264 268 271 273 276 279 282 285 287 290 293
256 255 254 252 251 249 247 245 244 243 244 244 244 244 244 244 243 242 242 243 244 245 246 247 247 248 250 253 255 256 257 260 263 266 270 272 275 277 281 284 287 289 292
255 254 252 251 250 249 247 245 243 242 242 242 243 242 243 243 242 241 241 242 243 244 245 246 246 247 249 252 254 256 257 259 262 265 269 271 274 276 279 283 286 289 291
255 253 251 249 248 248 246 244 243 241 241 241 241 241 241 241 240 239 239 240 241 243 243 245 246 247 249 250 252 255 257 258 260 264 267 270 273 275 278 281 285 288 291
255 252 250 248 247 246 245 244 242 240 240 239 240 240 240 239 239 238 238 238 240 241 242 243 245 246 248 249 251 253 256 258 260 262 266 269 272 274 277 280 284 288 291
255 253 250 249 246 245 244 242 241 239 238 238 238 238 238 238 237 236 237 237 238 238 240 241 242 245 247 248 250 252 255 257 259 262 265 268 271 273 276 279 283 288 292
256 253 250 248 245 243 242 241 239 238 237 236 236 236 236 235 235 235 235 236 237 237 239 240 241 243 245 247 249 251 253 255 258 262 265 267 270 273 275 279 283 287 291
257 255 251 248 245 241 239 238 238 235 235 233 233 234 234 233 233 233 233 234 235 236 237 238 239 241 242 245 247 249 251 254 257 260 263 266 270 272 275 279 283 286 290
259 255 251 248 243 239 237 236 235 234 233 231 230 231 231 231 231 231 231 232 234 234 235 237 237 239 241 244 245 248 250 253 256 259 262 265 268 271 275 279 283 286 289
260 254 249 245 241 238 235 233 233 232 231 230 228 228 229 229 229 229 229 230 232 233 234 235 236 238 240 242 245 246 249 252 254 257 260 264 267 270 274 278 282 285 288
261 256 249 244 241 237 234 231 231 230 229 228 227 226 227 227 226 226 227 228 229 231 232 234 235 237 239 241 244 246 248 251 253 256 260 263 266 270 274 278 282 285 288
263 257 250 242 239 237 234 231 229 229 228 227 225 224 225 226 225 224 226 227 227 229 230 233 234 237 238 240 243 245 247 250 254 257 260 263 267 270 274 277 282 285 287
264 257 249 242 237 236 234 230 228 227 227 226 224 222 223 224 225 224 225 225 226 227 229 232 234 236 238 241 243 244 246 250 253 257 260 263 267 270 273 277 280 284 286
265 256 248 242 238 236 235 232 228 227 227 225 223 221 221 223 224 223 223 224 225 225 228 231 232 234 237 239 242 244 246 250 253 257 260 263 266 269 273 276 279 283 286
266 258 251 245 240 237 234 231 229 227 225 223 221 221 221 222 222 221 222 224 224 225 227 229 231 234 236 238 241 243 246 249 253 256 259 263 266 269 272 275 278 281 285
Height
5848 5849 5850 5851 5853 5854 5855 5857 5858 5860 5861 5862 5864 5865 5867 5868 5869 5870 5871 5872 5873 5873 5874 5874 5875 5875 5875 5875 5875 5875 5874 5874 5873 5873 5872 5871 5870 5869 5868 5867 5866 5864 5863
5844 5846 5847 5848 5849 5850 5851 5853 5855 5856 5858 5859 5860 5862 5864 5865 5866 5867 5868 5869 5870 5871 5872 5872 5873 5873 5873 5873 5873 5873 5873 5873 5872 5871 5871 5870 5869 5868 5867 5866 5864 5863 5862
5840 5841 5842 5843 5845 5846 5847 5849 5850 5852 5854 5855 5857 5858 5860 5861 5863 5864 5865 5866 5867 5868 5869 5870 5870 5871 5871 5871 5871 5871 5871 5871 5870 5870 5869 5868 5867 5866 5865 5864 5863 5862 5860
5834 5836 5837 5838 5840 5841 5843 5844 5846 5847 5849 5851 5852 5854 5856 5857 5859 5860 5862 5863 5864 5865 5866 5867 5867 5868 5869 5869 5869 5869 5869 5869 5868 5868 5867 5867 5866 5865 5864 5862 5861 5860 5859
5828 5830 5832 5833 5834 5836 5837 5839 5841 5843 5844 5846 5848 5849 5851 5853 5854 5856 5857 5859 5860 5861 5862 5863 5864 5865 5866 5866 5867 5867 5867 5867 5866 5866 5865 5864 5864 5863 5862 5861 5860 5858 5857
5821 5823 5825 5827 5828 5830 5831 5833 5835 5837 5839 5841 5842 5844 5846 5848 5850 5851 5853 5854 5856 5857 5858 5860 5861 5862 5862 5863 5864 5865 5864 5864 5864 5863 5863 5862 5861 5860 5859 5858 5857 5856 5855
5813 5815 5817 5819 5821 5823 5825 5827 5829 5831 5833 5835 5837 5839 5840 5842 5844 5846 5848 5850 5851 5853 5854 5856 5857 5858 5859 5860 5861 5862 5862 5861 5861 5861 5860 5860 5859 5858 5857 5856 5855 5854 5852
5804 5806 5808 5811 5813 5816 5818 5820 5822 5824 5826 5828 5830 5832 5834 5836 5838 5840 5842 5844 5846 5848 5850 5851 5853 5854 5855 5856 5857 5858 5858 5858 5858 5858 5857 5857 5856 5855 5854 5853 5852 5851 5849
5794 5796 5799 5801 5804 5806 5809 5812 5814 5816 5819 5821 5823 5825 5828 5830 5832 5834 5836 5839 5841 5843 5845 5846 5848 5850 5851 5852 5853 5854 5855 5855 5855 5855 5854 5854 5853 5852 5851 5850 5849 5848 5846
5782 5785 5788 5791 5794 5797 5799 5802 5805 5808 5810 5813 5815 5818 5820 5823 5825 5827 5830 5832 5835 5837 5839 5841 5843 5845 5846 5848 5849 5850 5851 5851 5851 5851 5851 5850 5850 5849 5848 5847 5846 5844 5843
5770 5773 5775 5779 5782 5786 5789 5792 5795 5798 5801 5804 5807 5809 5812 5815 5817 5820 5823 5826 5828 5831 5833 5836 5838 5840 5841 5843 5844 5846 5846 5847 5847 5847 5847 5846 5846 5845 5844 5843 5842 5841 5839
5756 5759 5762 5765 5769 5773 5777 5780 5784 5787 5791 5794 5797 5800 5803 5807 5810 5813 5815 5818 5821 5824 5827 5829 5832 5834 5836 5838 5839 5841 5841 5842 5842 5842 5842 5842 5842 5841 5840 5839 5838 5837 5835
5740 5744 5748 5751 5755 5759 5763 5768 5772 5776 5780 5783 5787 5791 5794 5797 5801 5804 5807 5811 5814 5817 5820 5823 5826 5828 5830 5832 5834 5835 5836 5837 5837 5838 5838 5838 5837 5837 5836 5835 5834 5833 5831
5723 5727 5731 5735 5739 5744 5749 5754 5758 5763 5767 5772 5776 5780 5784 5788 5792 5796 5799 5803 5806 5810 5813 5816 5819 5821 5824 5826 5828 5830 5831 5832 5832 5833 5833 5833 5832 5832 5831 5830 5829 5828 5826
5704 5708 5713 5717 5722 5726 5732 5738 5744 5749 5754 5759 5763 5768 5773 5778 5782 5786 5790 5794 5798 5802 5805 5809 5812 5814 5817 5819 5822 5824 5825 5826 5827 5827 5828 5828 5827 5827 5826 5826 5825 5823 5822
5684 5688 5693 5698 5703 5708 5714 5720 5727 5733 5739 5744 5750 5755 5760 5766 5771 5776 5781 5785 5789 5794 5797 5801 5804 5807 5810 5812 5815 5817 5819 5820 5821 5822 5822 5822 5822 5822 5821 5820 5819 5818 5816
5665 5669 5673 5678 5684 5690 5696 5702 5709 5716 5722 5729 5735 5741 5747 5753 5759 5765 5770 5775 5780 5784 5788 5792 5796 5799 5802 5805 5808 5810 5813 5814 5815 5816 5816 5817 5817 5816 5816 5815 5814 5813 5811
5646 5650 5654 5659 5665 5671 5677 5684 5691 5698 5705 5713 5720 5727 5733 5740 5747 5753 5759 5764 5770 5775 5779 5784 5788 5791 5794 5798 5801 5803 5806 5808 5809 5810 5810 5811 5811 5811 5810 5810 5809 5807 5805
5629 5632 5636 5641 5646 5652 5659 5665 5672 5680 5687 5696 5704 5712 5719 5726 5733 5741 5747 5753 5758 5764 5769 5774 5779 5782 5786 5790 5793 5796 5799 5801 5802 5803 5804 5805 5805 5805 5804 5804 5803 5801 5800
5613 5615 5619 5623 5628 5634 5640 5648 5655 5662 5670 5679 5688 5697 5704 5712 5719 5727 5735 5741 5747 5754 5760 5765 5770 5774 5778 5782 5785 5788 5791 5794 5795 5797 5798 5798 5799 5799 5798 5797 5796 5795 5793
5598 5600 5603 5607 5612 5618 5625 5632 5640 5647 5655 5664 5672 5681 5689 5697 5706 5714 5722 5730 5737 5744 5750 5755 5761 5765 5770 5773 5777 5780 5783 5786 5788 5790 5791 5792 5792 5792 5792 5791 5790 5789 5787
5585 5586 5588 5593 5598 5603 5610 5618 5625 5633 5641 5649 5658 5666 5675 5684 5692 5701 5709 5718 5726 5733 5739 5745 5751 5756 5761 5765 5770 5773 5775 5778 5780 5782 5784 5785 5785 5785 5785 5784 5783 5782 5781
5573 5574 5575 5580 5585 5590 5596 5603 5610 5617 5625 5634 5643 5652 5661 5670 5679 5689 5698 5706 5715 5722 5730 5736 5742 5748 5752 5757 5761 5766 5768 5771 5774 5775 5777 5778 5778 5778 5778 5777 5776 5775 5773
5563 5563 5564 5568 5573 5578 5583 5589 5596 5603 5612 5621 5630 5639 5649 5658 5667 5677 5686 5694 5703 5712 5720 5726 5733 5739 5744 5748 5752 5757 5762 5765 5767 5768 5769 5770 5771 5771 5771 5770 5769 5768 5766
5552 5553 5555 5558 5562 5566 5571 5577 5584 5591 5599 5608 5617 5627 5636 5646 5654 5664 5674 5683 5692 5701 5710 5717 5723 5729 5735 5739 5744 5748 5752 5756 5759 5761 5762 5763 5763 5763 5763 5763 5762 5761 5759
5543 5544 5546 5549 5552 5556 5560 5566 5572 5579 5587 5595 5604 5615 5624 5634 5643 5653 5663 5672 5682 5691 5700 5708 5714 5720 5725 5731 5735 5739 5743 5747 5750 5753 5754 5754 5755 5756 5756 5755 5754 5753 5751